Location: Olomouc
(49.5830°N, 17.2500°E)
Time: 19:15:00
(UTC+02:00)

ISS - Pass Details

Date: 08 May 2021
Orbit: 417 x 422 km, 51.6° (Epoch: 14 June)

Event Time Altitude Azimuth Distance (km) Brightness Sun altitude
Exits shadow 01:14:42 13° 83° (E) 1,362 -1.0 -23.1°
Drops below altitude 10° 01:15:05 10° 80° (E) 1,508 -0.8 -23.1°
Sets 01:17:17 0° 72° (ENE) 2,377 0.4 -23.0°
